OH6NMY Weather Reports


time (UTC)temp
F
wind
direction
speed
knots
gust
knots
rain 1hr
in
rain 24hr
in
rain mn
in
humidity
%
barometer
mb
20260906075648 50 335 9.6 12.2 0.00 0.04 0.00 69 1008.9
20260906074958 49 338 10.4 14.8 0.00 0.04 0.00 73 1008.6
20260906073848 49 322 8.7 13.9 0.00 0.04 0.00 75 1008.5
20260906072948 48 319 8.7 13.9 0.00 0.04 0.00 77 1008.4
20260906072048 49 313 9.6 13.0 0.00 0.04 0.00 76 1008.3
20260906071148 50 332 8.7 13.0 0.00 0.04 0.00 72 1008.2
20260906070248 49 323 10.4 13.9 0.00 0.04 0.00 72 1008.1
20260906065557 49 322 8.7 13.9 0.00 0.04 0.00 72 1008.0
20260906064448 50 342 6.1 9.6 0.00 0.04 0.00 77 1007.9
20260906063548 48 317 7.0 11.3 0.00 0.04 0.00 81 1007.8
20260906062859 48 317 7.8 9.6 0.00 0.04 0.00 81 1007.5
20260906061748 49 327 7.0 7.8 0.00 0.04 0.00 81 1007.4
20260906060848 49 307 6.1 7.8 0.00 0.04 0.00 81 1007.4
20260906055948 49 314 4.3 6.1 0.00 0.04 0.00 85 1007.3
20260906055259 47 320 4.3 6.1 0.00 0.04 0.00 87 1007.1
20260906054148 47 318 4.3 6.1 0.00 0.04 0.00 87 1007.2
20260906053248 47 323 5.2 7.8 0.00 0.04 0.00 87 1007.0
20260906052348 47 310 5.2 6.1 0.00 0.04 0.00 87 1006.9
20260906051448 47 321 4.3 7.0 0.00 0.04 0.00 87 1006.7
20260906050548 47 319 5.2 6.1 0.00 0.04 0.00 87 1006.9
20260906045648 46 321 5.2 6.1 0.00 0.04 0.00 88 1006.8
20260906045000 46 323 4.3 6.1 0.00 0.04 0.00 89 1006.7
20260906044058 46 316 4.3 6.1 0.00 0.04 0.00 89 1006.5
20260906042948 46 310 4.3 6.1 0.00 0.04 0.00 89 1006.4
20260906042048 46 329 5.2 7.0 0.00 0.04 0.00 89 1006.1
20260906041148 46 322 3.5 6.1 0.00 0.04 0.00 90 1005.9
20260906040248 46 318 5.2 7.0 0.00 0.04 0.00 89 1006.2
20260906035559 46 306 5.2 7.0 0.00 0.04 0.00 90 1006.1
20260906034448 46 310 4.3 6.1 0.00 0.04 0.00 90 1005.9
20260906033548 46 312 4.3 6.1 0.00 0.04 0.00 91 1005.8
20260906032648 46 310 5.2 7.0 0.00 0.04 0.00 92 1005.8
20260906031748 46 319 4.3 5.2 0.00 0.04 0.00 92 1005.7
20260906030848 46 303 4.3 6.1 0.00 0.04 0.00 91 1005.7
20260906025948 46 308 3.5 5.2 0.00 0.04 0.00 92 1005.4
20260906025048 46 305 3.5 6.1 0.00 0.04 0.00 92 1005.6
20260906024148 45 313 3.5 5.2 0.00 0.04 0.00 93 1005.5
20260906023248 45 310 3.5 5.2 0.00 0.04 0.00 94 1005.5
20260906022348 46 304 4.3 5.2 0.00 0.04 0.00 94 1005.2
20260906021700 46 301 3.5 6.1 0.00 0.04 0.00 95 1005.4
20260906020548 46 312 4.3 6.1 0.00 0.04 0.00 95 1005.3
20260906015648 46 312 4.3 5.2 0.00 0.04 0.00 95 1005.1
20260906014748 46 316 3.5 5.2 0.00 0.04 0.00 96 1005.1
20260906013848 46 310 4.3 6.1 0.00 0.04 0.00 95 1004.9
20260906012948 46 308 4.3 7.0 0.00 0.04 0.00 96 1004.8
20260906012048 46 304 3.5 5.2 0.00 0.04 0.00 96 1004.7
20260906011402 46 311 3.5 3.5 0.00 0.04 0.00 96 1004.6
20260906010248 46 301 4.3 5.2 0.00 0.04 0.00 97 1004.5
20260906005348 46 301 3.5 5.2 0.00 0.04 0.00 97 1004.6
20260906004448 46 305 3.5 5.2 0.00 0.04 0.00 97 1004.5
20260906003548 46 305 3.5 5.2 0.00 0.04 0.00 97 1004.5
20260906002648 46 302 2.6 5.2 0.00 0.04 0.00 97 1004.4
20260906002001 46 303 3.5 5.2 0.00 0.04 0.00 97 1004.4
20260906000848 46 305 2.6 5.2 0.00 0.04 0.00 97 1004.3
20260905235948 46 303 3.5 5.2 0.00 0.04 0.00 97 1004.3
20260905235048 46 294 2.6 3.5 0.00 0.04 0.00 96 1004.4
20260905234148 47 304 3.5 5.2 0.00 0.04 0.00 96 1004.1
20260905233248 47 295 2.6 3.5 0.00 0.04 0.00 97 1004.2
20260905232348 47 307 2.6 3.5 0.00 0.04 0.00 97 1004.1
20260905231448 47 302 3.5 5.2 0.00 0.04 0.00 97 1004.1
20260905230548 47 294 2.6 3.5 0.00 0.04 0.00 97 1004.2
20260905225648 47 316 2.6 3.5 0.00 0.04 0.00 97 1003.8
20260905224748 47 328 1.7 3.5 0.00 0.04 0.00 97 1003.9
20260905223848 47 316 3.5 5.2 0.00 0.04 0.00 97 1004.0
20260905222948 47 315 3.5 5.2 0.00 0.04 0.00 97 1004.0
20260905222301 47 312 3.5 5.2 0.00 0.04 0.00 97 1003.8
20260905221148 47 325 2.6 3.5 0.00 0.04 0.00 97 1003.9
20260905220248 47 322 4.3 6.1 0.00 0.04 0.00 97 1003.7
20260905215558 48 325 5.2 7.0 0.00 0.04 0.00 96 1003.6
20260905214701 48 331 4.3 7.0 0.00 0.04 0.00 96 1003.7
20260905213758 48 324 5.2 7.0 0.00 0.04 0.00 96 1003.9
20260905212648 48 317 5.2 7.8 0.00 0.04 0.00 95 1003.4
20260905211957 48 318 5.2 7.8 0.00 0.04 0.00 94 1003.6
20260905210848 48 315 4.3 7.0 0.00 0.04 0.00 94 1003.4
20260905205948 48 316 5.2 7.0 0.00 0.04 0.04 94 1003.2
20260905205048 48 323 4.3 6.1 0.00 0.04 0.04 94 1003.2
20260905204148 48 316 4.3 6.1 0.00 0.04 0.04 94 1003.1
20260905203459 48 315 3.5 6.1 0.00 0.04 0.04 94 1003.0
20260905202602 48 325 4.3 7.0 0.00 0.04 0.04 94 1003.0
20260905201448 48 315 5.2 7.8 0.00 0.04 0.04 94 1002.8
20260905200801 48 316 5.2 6.1 0.00 0.04 0.04 94 1002.8
20260905195648 48 323 3.5 3.5 0.00 0.04 0.04 94 1002.7
20260905194753 48 319 4.3 7.0 0.00 0.04 0.04 94 1002.7
20260905193848 48 324 5.2 7.8 0.00 0.04 0.04 93 1002.4
20260905192948 48 318 5.2 6.1 0.00 0.04 0.04 93 1002.3
20260905192048 48 325 5.2 6.1 0.00 0.04 0.04 93 1002.6
20260905191400 48 323 4.3 6.1 0.00 0.04 0.04 93 1002.5
20260905190248 49 321 4.3 6.1 0.00 0.04 0.04 93 1002.5
20260905185600 49 320 4.3 6.1 0.00 0.04 0.04 92 1002.3
20260905184448 49 323 5.2 7.8 0.00 0.04 0.04 92 1002.3
20260905183800 49 339 6.1 7.8 0.00 0.04 0.04 92 1002.1
20260905182648 49 323 6.1 7.0 0.00 0.04 0.04 92 1002.2
20260905181748 49 324 4.3 7.8 0.00 0.04 0.04 92 1002.1
20260905180848 49 314 4.3 6.1 0.00 0.04 0.04 92 1002.1
20260905180159 49 322 4.3 5.2 0.00 0.04 0.04 92 1002.0
20260905175048 49 321 4.3 7.0 0.00 0.04 0.04 92 1002.0
20260905174148 49 326 4.3 7.8 0.00 0.04 0.04 91 1001.7
20260905173501 49 340 5.2 7.8 0.00 0.04 0.04 91 1001.6
20260905172348 49 317 4.3 7.0 0.00 0.04 0.04 90 1001.7
20260905171448 49 322 3.5 9.6 0.00 0.04 0.04 90 1001.4
20260905170758 50 336 3.5 6.1 0.00 0.04 0.04 89 1001.4
20260905165900 50 324 4.3 7.0 0.00 0.04 0.04 88 1001.0
20260905164748 50 167 14.8 44.3 0.00 0.04 0.04 88 1001.2
20260905164100 50 157 40.8 44.3 0.00 0.04 0.04 88 1001.0
20260905163158 50 158 35.6 44.3 0.00 0.04 0.04 14 1000.7
20260905162300 51 318 8.7 13.0 0.00 0.04 0.04 88 1000.9
20260905161148 51 320 7.0 11.3 0.00 0.04 0.04 87 1000.9
20260905160248 51 328 7.8 9.6 0.00 0.04 0.04 86 1000.7
20260905155348 51 343 7.8 9.6 0.00 0.04 0.04 85 1000.5
20260905154448 52 329 8.7 13.0 0.00 0.04 0.04 85 1000.6
20260905153548 52 329 7.0 11.3 0.00 0.05 0.04 85 1000.4
20260905152859 53 328 7.8 13.0 0.00 0.05 0.04 81 1000.2
20260905151748 53 301 7.0 9.6 0.00 0.06 0.04 81 1000.2
20260905150848 52 316 7.0 9.6 0.00 0.06 0.04 83 1000.1
20260905145948 52 318 6.1 7.8 0.00 0.06 0.04 87 999.8
20260905145048 52 319 7.8 12.2 0.00 0.06 0.04 88 999.8
20260905144148 52 320 7.0 9.6 0.00 0.06 0.04 87 999.4
20260905143248 53 329 10.4 12.2 0.00 0.06 0.04 86 999.8
20260905142348 53 315 7.8 9.6 0.00 0.06 0.04 84 999.5
20260905141658 54 321 7.8 9.6 0.00 0.06 0.04 84 999.4
20260905140548 54 333 7.8 13.9 0.00 0.06 0.04 86 998.8
20260905135857 53 319 8.7 13.9 0.00 0.06 0.04 85 999.1
20260905134748 53 312 8.7 12.2 0.00 0.06 0.04 85 999.0
20260905133848 53 328 8.7 9.6 0.00 0.06 0.04 86 998.8
20260905132948 53 324 7.0 9.6 0.00 0.06 0.04 87 999.0
20260905132048 53 297 5.2 9.6 0.00 0.06 0.04 88 999.0
20260905131148 54 334 5.2 7.0 0.00 0.06 0.04 85 998.8
20260905130248 54 311 5.2 7.8 0.00 0.06 0.04 86 998.8
20260905125559 53 322 8.7 12.2 0.00 0.06 0.04 88 998.5
20260905124448 56 339 5.2 12.2 0.00 0.06 0.04 81 998.4
20260905123758 56 326 6.1 11.3 0.00 0.06 0.04 81 998.1
20260905122648 55 309 8.7 13.0 0.00 0.06 0.04 84 998.3
20260905121748 55 304 7.8 11.3 0.00 0.06 0.04 85 998.1
20260905121101 56 312 7.0 9.6 0.00 0.06 0.04 83 997.9
20260905115948 56 307 9.6 13.9 0.00 0.06 0.04 83 997.7
20260905115300 57 317 7.8 11.3 0.00 0.06 0.04 79 997.5
20260905114148 56 348 7.8 9.6 0.00 0.06 0.04 79 997.6
20260905113248 56 337 6.1 9.6 0.00 0.06 0.04 83 997.7
20260905112348 57 320 7.0 11.3 0.00 0.06 0.04 83 997.4
20260905111448 56 323 5.2 11.3 0.00 0.06 0.04 83 997.3
20260905110548 56 320 7.0 12.2 0.00 0.06 0.04 83 997.4
20260905105648 56 315 5.2 9.6 0.00 0.06 0.04 85 997.3
20260905104748 55 338 5.2 9.6 0.00 0.06 0.04 88 997.4
20260905103848 54 333 7.0 9.6 0.00 0.06 0.04 89 997.1
20260905102948 54 314 8.7 9.6 0.00 0.06 0.04 91 997.1
20260905102258 54 319 7.8 11.3 0.00 0.06 0.04 91 997.1
20260905101148 54 335 8.7 12.2 0.00 0.06 0.04 90 996.9
20260905100248 55 296 7.8 11.3 0.00 0.06 0.04 90 996.9
20260905095601 55 310 7.0 11.3 0.00 0.06 0.04 90 996.4
20260905094658 55 308 7.0 9.6 0.00 0.06 0.04 90 996.4
20260905093548 54 322 7.0 9.6 0.00 0.06 0.04 93 996.4
20260905092648 54 325 7.0 9.6 0.01 0.06 0.04 94 996.5
20260905091748 54 310 7.0 11.3 0.04 0.06 0.04 93 996.0
20260905090848 54 331 6.1 9.6 0.04 0.06 0.04 95 996.0
20260905085948 53 325 6.1 9.6 0.04 0.06 0.04 95 996.2
20260905085305 54 319 7.0 11.3 0.04 0.06 0.04 96 996.1
20260905084359 53 317 5.2 9.6 0.04 0.06 0.04 97 995.9
20260905083248 53 320 5.2 7.0 0.04 0.06 0.04 96 995.9
20260905082348 53 350 4.3 7.0 0.01 0.04 0.01 95 995.9
20260905081448 54 328 2.6 5.2 0.00 0.02 0.00 94 995.7
20260905080548 54 329 5.2 7.8 0.00 0.02 0.00 95 995.7